Location: White Mills Observatory
(37.5374°N, 86.0303°W)
Time: 20:16:26
(UTC-04:00)

Amateur Radio Satellites - All Passes

Search period start: 01 August 2015 19:46
Search period end: 02 August 2015 19:46
Location: White Mills Observatory, 37.5374°N, 86.0303°W

Satellite Date Start Highest point End Downlink Frequencies (MHz)
Time Altitude Azimuth
BRITE-PL 01 Aug 19:50:03 19:53:07 19° 70° (ENE) 19:56:13 437.365/2234.400
CUTE-I 01 Aug 19:58:24 20:03:23 38° 262° (W) 20:08:21 437.470
GOMX 1 01 Aug 19:59:23 20:01:20 13° 68° (ENE) 20:03:28 467.674
HO-68 01 Aug 20:06:45 20:11:52 23° 61° (ENE) 20:17:14 435.675
STRAND 1 01 Aug 20:09:36 20:14:04 31° 96° (E) 20:18:35 437.568
CANX-2 01 Aug 20:13:49 20:14:08 10° 65° (ENE) 20:14:44 2200.000
GONETS M04 01 Aug 20:19:44 20:25:55 21° 278° (W) 20:31:40
PRISM 01 Aug 20:20:10 20:23:45 29° 97° (E) 20:27:21 437.425
VERMONT LUNAR 01 Aug 20:25:02 20:28:11 58° 349° (N) 20:31:20 437.305
ISS 01 Aug 20:32:59 20:34:25 13° 129° (SE) 20:35:58 145.825
Cubesat XI-IV 01 Aug 20:45:11 20:48:07 14° 270° (W) 20:50:46 437.490
PHONESAT 2.4 01 Aug 20:47:22 20:50:44 46° 155° (SSE) 20:54:07 2401.200-2431.200
SO-50 01 Aug 20:54:46 20:57:20 14° 252° (WSW) 20:59:37 436.795
RS-15 01 Aug 20:59:00 21:07:13 27° 105° (ESE) 21:16:04 29.354- 29.394
CUBESAT XI-V 01 Aug 21:05:52 21:09:08 19° 292° (WNW) 21:12:14 437.345
PCSat 01 Aug 21:09:45 21:12:35 14° 255° (WSW) 21:15:07 145.827
COMPASS 1 01 Aug 21:17:32 21:21:13 31° 72° (ENE) 21:24:59 437.405
DOVE 4 01 Aug 21:20:30 21:24:38 68° 76° (ENE) 21:28:46 437.250
CINEMA 3 01 Aug 21:25:56 21:29:35 31° 72° (ENE) 21:33:21 145.822/145.860
BRITE-PL 01 Aug 21:27:35 21:31:33 31° 263° (W) 21:35:19 437.365/2234.400
SEEDS 01 Aug 21:33:01 21:37:11 61° 75° (ENE) 21:41:26 437.485
GOMX 1 01 Aug 21:35:07 21:39:12 44° 261° (W) 21:43:11 467.674
FUNcube-1 01 Aug 21:35:32 21:35:57 10° 65° (ENE) 21:36:37 145.935
Cosmos 2499 01 Aug 21:35:49 21:43:03 28° 275° (W) 21:50:00 435.465 / 435.565
CUTE 1.7 + AOD 2 01 Aug 21:36:47 21:41:03 86° 78° (ENE) 21:45:22 437.475
UWE-3 01 Aug 21:37:17 21:39:39 15° 67° (ENE) 21:42:12 435.000/436.395/437.385
DELFI C3 01 Aug 21:41:58 21:43:59 14° 68° (ENE) 21:46:10 145.870
Oscar 11 01 Aug 21:44:07 21:47:32 24° 70° (ENE) 21:51:03 145.826/435.025
CANX-2 01 Aug 21:45:18 21:49:33 67° 260° (W) 21:53:50 2200.000
STRAND 1 01 Aug 21:48:52 21:53:12 28° 291° (WNW) 21:57:26 437.568
HO-68 01 Aug 21:51:57 21:59:03 68° 257° (WSW) 22:06:11 435.675
CUBEBUG 2 01 Aug 21:52:46 21:56:21 29° 71° (ENE) 22:00:04 437.445
PRISM 01 Aug 21:56:00 21:59:01 20° 291° (WNW) 22:01:56 437.425
AAUSAT CUBESAT 2 01 Aug 21:57:52 22:02:03 79° 77° (ENE) 22:06:17 437.432
VERMONT LUNAR 01 Aug 22:02:02 22:05:09 49° 6° (N) 22:08:15 437.305
ISS 01 Aug 22:07:21 22:10:32 55° 322° (NW) 22:13:45 145.825
PHONESAT 2.4 01 Aug 22:25:13 22:28:41 59° 350° (N) 22:32:10 2401.200-2431.200
Cosmos 2491 01 Aug 22:31:19 22:32:55 11° 56° (ENE) 22:35:19 435.465 / 435.565
ZACube-1 01 Aug 22:46:11 22:50:20 72° 76° (ENE) 22:54:37 437.345
M-CUBED/EXP-1 PRIME 01 Aug 22:46:54 22:50:58 28° 99° (E) 22:54:59 437.505
COMPASS 1 01 Aug 22:53:50 22:56:57 19° 267° (W) 22:59:58 437.405
CINEMA 3 01 Aug 23:04:03 23:06:56 18° 268° (W) 23:09:43 145.822/145.860
50 SAT 01 Aug 23:04:58 23:07:44 19° 70° (ENE) 23:10:38 437.505
TIGRISAT 01 Aug 23:06:48 23:08:36 12° 89° (E) 23:10:43 435.000
FUNcube-1 01 Aug 23:07:37 23:11:45 64° 260° (W) 23:15:59 145.935
RS-15 01 Aug 23:07:45 23:18:39 74° 304° (NW) 23:29:57 29.354- 29.394
ANTELSAT 01 Aug 23:08:31 23:10:46 14° 90° (E) 23:13:17 437.575/2403.000
UWE-3 01 Aug 23:11:54 23:15:51 41° 262° (W) 23:19:53 435.000/436.395/437.385
DELFI C3 01 Aug 23:14:50 23:18:42 42° 262° (W) 23:22:36 145.870
AUBIESAT-1 01 Aug 23:15:15 23:19:50 48° 103° (ESE) 23:24:16 437.475
Oscar 11 01 Aug 23:19:54 23:23:37 27° 265° (W) 23:27:18 145.826/435.025
UKube-1 01 Aug 23:20:40 23:24:47 45° 73° (ENE) 23:28:55 .
HUMSAT D 01 Aug 23:27:18 23:31:25 87° 78° (ENE) 23:35:39 437.325/437.525
AISAT 01 Aug 23:28:20 23:32:19 35° 72° (ENE) 23:36:22 437.250
CUBEBUG 2 01 Aug 23:29:57 23:33:06 20° 267° (W) 23:36:13 437.445
BEESAT 2 01 Aug 23:35:02 23:37:49 18° 111° (ESE) 23:40:46 435.950
VERMONT LUNAR 01 Aug 23:38:48 23:41:57 61° 201° (SSW) 23:45:03 437.305
CUBEBUG 1 01 Aug 23:40:41 23:44:17 26° 71° (ENE) 23:47:57 437.445
ISS 01 Aug 23:46:17 23:47:35 12° 341° (NNW) 23:48:49 145.825
POLYITAN 1 01 Aug 23:47:29 23:49:05 12° 90° (E) 23:50:56 437.675
DX 1 01 Aug 23:49:39 23:53:59 74° 257° (WSW) 23:58:20 434.975-435.025
AIST 1 01 Aug 23:50:30 23:54:26 37° 78° (ENE) 23:58:25
UNISAT 6 01 Aug 23:58:11 00:02:43 48° 99° (E) 00:07:17 437.425
POPSAT HIP 1 02 Aug 00:03:08 00:06:03 18° 93° (E) 00:09:07 437.405
PHONESAT 2.4 02 Aug 00:03:27 00:06:54 55° 7° (N) 00:10:21 2401.200-2431.200
BUGSAT 1 02 Aug 00:05:21 00:05:57 10° 90° (E) 00:06:49 437.445
VELOX 1 02 Aug 00:06:39 00:11:05 86° 257° (WSW) 00:15:30 145.980
QB50P2 02 Aug 00:10:37 00:14:01 23° 95° (E) 00:17:30 145.880/145.840
BEESAT 3 02 Aug 00:12:27 00:16:28 67° 118° (ESE) 00:20:33 437.485
SPROUT 02 Aug 00:14:40 00:17:28 18° 68° (ENE) 00:20:25 437.525
ESTCUBE 1 02 Aug 00:21:06 00:25:39 87° 257° (WSW) 00:30:12 437.505/2401.250
M-CUBED/EXP-1 PRIME 02 Aug 00:21:28 00:25:40 30° 295° (WNW) 00:29:42 437.505
Cosmos 2491 02 Aug 00:23:19 00:31:59 66° 80° (E) 00:40:38 435.465 / 435.565
TISAT 1 02 Aug 00:24:21 00:26:22 14° 67° (ENE) 00:28:35 437.305
DUCHIFAT 1 02 Aug 00:33:51 00:37:51 40° 98° (E) 00:41:53 145.980
QB50P1 02 Aug 00:37:38 00:41:45 47° 99° (E) 00:45:53 145.935-145.965
NANOSAT C BR1 02 Aug 00:38:33 00:42:40 47° 99° (E) 00:46:47 145.865
50 SAT 02 Aug 00:38:51 00:42:10 26° 265° (W) 00:45:28 437.505
TIGRISAT 02 Aug 00:41:09 00:45:47 60° 286° (WNW) 00:50:25 435.000
YUBILEINY 02 Aug 00:42:13 00:50:02 41° 88° (E) 00:58:04 435.215
ANTELSAT 02 Aug 00:43:19 00:47:55 54° 286° (WNW) 00:52:31 437.575/2403.000
AUBIESAT-1 02 Aug 00:50:52 00:54:09 18° 298° (WNW) 00:57:14 437.475
UKube-1 02 Aug 00:58:51 01:01:11 14° 269° (W) 01:03:20 .
AISAT 02 Aug 01:05:56 01:09:02 18° 267° (W) 01:12:00 437.250
AIST 2 02 Aug 01:11:36 01:15:40 47° 116° (ESE) 01:19:47 435.215
BEESAT 2 02 Aug 01:11:51 01:15:39 35° 306° (NW) 01:19:27 435.950
CUBEBUG 1 02 Aug 01:17:01 01:20:37 24° 265° (W) 01:24:08 437.445
VERMONT LUNAR 02 Aug 01:17:06 01:18:16 11° 215° (SW) 01:19:19 437.305
POLYITAN 1 02 Aug 01:21:10 01:25:20 50° 286° (WNW) 01:29:29 437.675
BEESAT 02 Aug 01:22:57 01:24:25 12° 64° (ENE) 01:26:09 436.000
RS-15 02 Aug 01:24:56 01:33:35 24° 332° (NNW) 01:42:11 29.354- 29.394
AIST 1 02 Aug 01:29:20 01:31:49 15° 272° (W) 01:34:05
UNISAT 6 02 Aug 01:36:07 01:39:08 17° 293° (WNW) 01:41:59 437.425
BUGSAT 1 02 Aug 01:37:49 01:41:48 53° 285° (WNW) 01:45:48 437.445
POPSAT HIP 1 02 Aug 01:38:11 01:42:02 33° 288° (WNW) 01:45:50 437.405
PHONESAT 2.4 02 Aug 01:41:28 01:44:55 56° 204° (SSW) 01:48:20 2401.200-2431.200
SWISSCUBE 02 Aug 01:41:31 01:44:55 20° 67° (ENE) 01:48:27 437.505
QB50P2 02 Aug 01:46:16 01:49:53 26° 289° (WNW) 01:53:25 145.880/145.840
SPROUT 02 Aug 01:49:23 01:53:19 35° 263° (W) 01:57:14 437.525
BEESAT 3 02 Aug 01:52:59 01:54:55 13° 317° (NW) 01:56:40 437.485
TISAT 1 02 Aug 01:57:46 02:01:47 45° 261° (W) 02:05:49 437.305
Oscar 19 02 Aug 02:02:06 02:04:52 15° 90° (E) 02:07:54 437.125/150
ITUPSAT 1 02 Aug 02:02:07 02:06:12 29° 70° (ENE) 02:10:23 437.325
DUCHIFAT 1 02 Aug 02:10:43 02:13:23 16° 292° (WNW) 02:15:51 145.980
QB50P1 02 Aug 02:14:59 02:17:15 14° 293° (WNW) 02:19:21 145.935-145.965
NANOSAT C BR1 02 Aug 02:15:53 02:18:08 14° 293° (WNW) 02:20:11 145.865
Cosmos 2491 02 Aug 02:21:34 02:28:13 24° 276° (W) 02:34:28 435.465 / 435.565
YUBILEINY 02 Aug 02:38:47 02:46:53 40° 287° (WNW) 02:54:56 435.215
O/OREOS (USA 219) 02 Aug 02:40:15 02:44:42 68° 293° (WNW) 02:49:11 437.305
AIST 2 02 Aug 02:51:34 02:54:30 18° 313° (NW) 02:57:21 435.215
BEESAT 02 Aug 02:56:56 03:01:43 73° 259° (WSW) 03:06:32 436.000
ISS 02 Aug 03:01:12 03:02:55 14° 21° (NNE) 03:04:40 145.825
Gurwin Techsat 1B 02 Aug 03:07:21 03:11:00 19° 92° (E) 03:14:51 435.225
STARS 02 Aug 03:08:21 03:10:18 13° 66° (ENE) 03:12:29 437.465
SWISSCUBE 02 Aug 03:18:00 03:22:31 40° 262° (W) 03:27:01 437.505
PHONESAT 2.4 02 Aug 03:21:13 03:22:26 11° 217° (SW) 03:23:31 2401.200-2431.200
JAS-2 02 Aug 03:23:37 03:27:47 16° 85° (E) 03:32:25 435.910
ITAMSAT 1 02 Aug 03:24:01 03:28:06 24° 94° (E) 03:32:18 435.822/435.867
KKS-1 02 Aug 03:34:58 03:39:09 44° 73° (ENE) 03:43:23 437.445
Oscar 19 02 Aug 03:39:34 03:44:41 59° 286° (WNW) 03:49:45 437.125/150
ITUPSAT 1 02 Aug 03:39:59 03:44:04 27° 265° (W) 03:48:06 437.325
Cosmos 2504 02 Aug 03:43:22 03:50:23 72° 94° (E) 03:57:58 435.465 / 435.565
RS-15 02 Aug 03:45:31 03:51:55 16° 7° (N) 03:58:39 29.354- 29.394
JUGNU 02 Aug 04:19:46 04:21:40 12° 172° (S) 04:23:38 437.505
MOZHAYETS 4 02 Aug 04:32:59 04:36:29 22° 69° (ENE) 04:40:07
HORYU 2 02 Aug 04:35:44 04:38:10 15° 91° (E) 04:40:49 437.375
ISS 02 Aug 04:36:34 04:39:50 76° 39° (NE) 04:43:05 145.825
STARS 02 Aug 04:42:05 04:46:20 52° 260° (W) 04:50:38 437.465
DANDE 02 Aug 04:45:11 04:46:57 14° 97° (E) 04:48:39 436.750
Gurwin Techsat 1B 02 Aug 04:46:11 04:51:17 47° 288° (WNW) 04:56:20 435.225
CUSAT 1 02 Aug 04:57:24 05:00:10 37° 98° (E) 05:02:39 437.405
ITAMSAT 1 02 Aug 05:02:59 05:07:43 37° 290° (WNW) 05:12:24 435.822/435.867
AO-7 02 Aug 05:05:32 05:13:10 40° 98° (E) 05:20:52 29.400- 29.500
JAS-2 02 Aug 05:05:59 05:13:54 88° 103° (ESE) 05:21:36 435.910
KKS-1 02 Aug 05:13:28 05:16:03 15° 269° (W) 05:18:27 437.445
GONETS M04 02 Aug 05:27:54 05:32:08 15° 80° (E) 05:36:58
Cosmos 2504 02 Aug 05:38:35 05:43:36 19° 296° (WNW) 05:48:27 435.465 / 435.565
RS-15 02 Aug 05:59:09 06:09:27 35° 40° (NE) 06:20:20 29.354- 29.394
JUGNU 02 Aug 06:07:07 06:09:52 13° 182° (S) 06:12:37 437.505
MOZHAYETS 4 02 Aug 06:09:19 06:13:32 33° 264° (W) 06:17:44
HORYU 2 02 Aug 06:10:47 06:15:06 46° 287° (WNW) 06:19:23 437.375
SRMSAT 02 Aug 06:13:23 06:15:21 12° 172° (S) 06:17:21 437.500
DANDE 02 Aug 06:28:13 06:29:58 14° 284° (WNW) 06:31:29 436.750
CUBESAT XI-V 02 Aug 06:29:11 06:33:16 31° 71° (ENE) 06:37:24 437.345
CUTE-I 02 Aug 06:40:47 06:41:30 10° 87° (E) 06:42:39 437.470
JAS-2 02 Aug 06:52:43 06:58:03 20° 299° (WNW) 07:03:01 435.910
AO-7 02 Aug 06:58:16 07:06:02 44° 296° (WNW) 07:13:39 29.400- 29.500
PRISM 02 Aug 07:08:58 07:11:46 18° 68° (ENE) 07:14:42 437.425
GONETS M04 02 Aug 07:19:12 07:27:56 89° 87° (E) 07:36:40
Cubesat XI-IV 02 Aug 07:21:56 07:26:31 30° 95° (E) 07:31:10 437.490
STRAND 1 02 Aug 07:23:30 07:28:10 37° 71° (ENE) 07:32:55 437.568
SRMSAT 02 Aug 08:00:59 08:03:41 13° 182° (S) 08:06:23 437.500
CUBESAT XI-V 02 Aug 08:06:57 08:10:44 23° 266° (W) 08:14:26 437.345
RS-15 02 Aug 08:11:20 08:23:10 76° 243° (WSW) 08:35:21 29.354- 29.394
Cosmos 2499 02 Aug 08:16:12 08:23:08 48° 90° (E) 08:30:40 435.465 / 435.565
CUTE-I 02 Aug 08:17:00 08:22:20 82° 286° (WNW) 08:27:39 437.470
PCSat 02 Aug 08:25:18 08:26:19 11° 104° (ESE) 08:27:43 145.827
BEESAT 3 02 Aug 08:33:13 08:36:25 23° 50° (NE) 08:39:39 437.485
PRISM 02 Aug 08:43:09 08:46:59 34° 262° (W) 08:50:47 437.425
Cubesat XI-IV 02 Aug 09:01:55 09:06:36 31° 291° (WNW) 09:11:11 437.490
STRAND 1 02 Aug 09:03:23 09:07:30 23° 266° (W) 09:11:30 437.568
GONETS M04 02 Aug 09:20:38 09:26:12 17° 298° (WNW) 09:31:14
DOVE 4 02 Aug 09:21:06 09:24:46 23° 94° (E) 09:28:42 437.250
SEEDS 02 Aug 09:21:26 09:22:52 12° 89° (E) 09:24:34 437.485
HO-68 02 Aug 09:22:31 09:28:15 26° 94° (E) 09:34:11 435.675
CUTE 1.7 + AOD 2 02 Aug 09:25:04 09:27:49 17° 92° (E) 09:30:43 437.475
SO-50 02 Aug 09:25:04 09:29:13 32° 113° (ESE) 09:33:34 436.795
CINEMA 3 02 Aug 09:25:04 09:25:23 10° 88° (E) 09:26:05 145.822/145.860
BEESAT 2 02 Aug 09:32:15 09:36:20 74° 58° (ENE) 09:40:19 435.950
BRITE-PL 02 Aug 09:32:36 09:37:03 85° 103° (ESE) 09:41:51 437.365/2234.400
CANX-2 02 Aug 09:33:05 09:36:33 24° 94° (E) 09:40:03 2200.000
M-CUBED/EXP-1 PRIME 02 Aug 09:33:13 09:36:29 24° 63° (ENE) 09:40:03 437.505
AIST 2 02 Aug 09:35:43 09:38:42 19° 47° (NE) 09:41:45 435.215
GOMX 1 02 Aug 09:37:31 09:42:02 56° 100° (E) 09:46:53 467.674
AAUSAT CUBESAT 2 02 Aug 09:44:13 09:46:25 14° 91° (E) 09:48:48 437.432
AUBIESAT-1 02 Aug 10:00:46 10:04:34 41° 68° (ENE) 10:08:44 437.475
PCSat 02 Aug 10:03:41 10:09:06 85° 296° (WNW) 10:14:34 145.827
Cosmos 2499 02 Aug 10:10:13 10:16:39 30° 291° (WNW) 10:23:19 435.465 / 435.565
BEESAT 3 02 Aug 10:10:51 10:14:23 29° 246° (WSW) 10:17:48 437.485
RS-15 02 Aug 10:27:23 10:34:12 16° 259° (W) 10:40:01 29.354- 29.394
ZACube-1 02 Aug 10:37:32 10:40:30 17° 92° (E) 10:43:38 437.345
COMPASS 1 02 Aug 10:37:42 10:41:57 77° 101° (ESE) 10:46:08 437.405
SEEDS 02 Aug 10:54:53 10:59:02 50° 286° (WNW) 11:03:08 437.485
UNISAT 6 02 Aug 10:55:34 10:59:24 32° 71° (ENE) 11:03:23 437.425
YUBILEINY 02 Aug 10:55:42 11:00:56 18° 62° (ENE) 11:06:42 435.215
DELFI C3 02 Aug 10:55:55 10:59:22 27° 95° (E) 11:02:51 145.870
POPSAT HIP 1 02 Aug 10:55:55 10:57:10 11° 66° (ENE) 10:58:37 437.405
FUNcube-1 02 Aug 10:57:55 11:01:50 28° 95° (E) 11:05:49 145.935
DOVE 4 02 Aug 10:58:21 11:02:34 34° 287° (WNW) 11:06:56 437.250
CINEMA 3 02 Aug 10:58:22 11:03:06 74° 283° (WNW) 11:08:00 145.822/145.860
CUTE 1.7 + AOD 2 02 Aug 10:59:56 11:03:53 36° 287° (WNW) 11:07:47 437.475
QB50P2 02 Aug 11:02:51 11:05:05 15° 67° (ENE) 11:07:29 145.880/145.840
UWE-3 02 Aug 11:03:04 11:07:29 44° 98° (E) 11:11:58 435.000/436.395/437.385
SO-50 02 Aug 11:05:34 11:09:46 29° 311° (NW) 11:14:01 436.795
M-CUBED/EXP-1 PRIME 02 Aug 11:07:43 11:11:10 27° 262° (W) 11:14:48 437.505
Oscar 11 02 Aug 11:08:21 11:12:40 61° 100° (E) 11:16:59 145.826/435.025
CANX-2 02 Aug 11:08:48 11:12:26 26° 289° (WNW) 11:15:56 2200.000
HO-68 02 Aug 11:09:23 11:16:21 54° 291° (WNW) 11:23:16 435.675
AIST 2 02 Aug 11:13:33 11:17:28 39° 245° (WSW) 11:21:17 435.215
O/OREOS (USA 219) 02 Aug 11:14:07 11:16:52 16° 56° (NE) 11:19:47 437.305
HUMSAT D 02 Aug 11:14:15 11:16:59 17° 92° (E) 11:19:51 437.325/437.525
GOMX 1 02 Aug 11:17:22 11:19:52 14° 292° (WNW) 11:22:13 467.674
AAUSAT CUBESAT 2 02 Aug 11:18:17 11:22:15 40° 287° (WNW) 11:26:10 437.432
CUBEBUG 2 02 Aug 11:21:02 11:25:44 90° 290° (WNW) 11:30:29 437.445
DUCHIFAT 1 02 Aug 11:24:47 11:28:03 24° 70° (ENE) 11:31:27 145.980
QB50P1 02 Aug 11:28:47 11:32:18 27° 71° (ENE) 11:35:55 145.935-145.965
NANOSAT C BR1 02 Aug 11:29:29 11:33:00 27° 71° (ENE) 11:36:36 145.865
Cosmos 2491 02 Aug 11:31:13 11:34:31 13° 79° (E) 11:38:32 435.465 / 435.565
AUBIESAT-1 02 Aug 11:37:06 11:39:36 15° 266° (W) 11:42:01 437.475
TIGRISAT 02 Aug 11:37:48 11:42:07 86° 257° (WSW) 11:46:35 435.000
ANTELSAT 02 Aug 11:40:09 11:44:29 78° 257° (WSW) 11:48:57 437.575/2403.000
DX 1 02 Aug 11:40:36 11:43:53 21° 94° (E) 11:47:16 434.975-435.025
PCSat 02 Aug 11:50:44 11:53:26 13° 317° (NW) 11:55:55 145.827
VELOX 1 02 Aug 11:59:50 12:03:04 20° 94° (E) 12:06:25 145.980
POLYITAN 1 02 Aug 12:11:50 12:16:02 88° 256° (WSW) 12:20:16 437.675
ZACube-1 02 Aug 12:12:45 12:17:02 41° 287° (WNW) 12:21:19 437.345
50 SAT 02 Aug 12:15:30 12:19:11 37° 97° (E) 12:22:53 437.505
ESTCUBE 1 02 Aug 12:16:28 12:19:56 22° 94° (E) 12:23:30 437.505/2401.250
AIST 1 02 Aug 12:18:13 12:21:44 25° 90° (E) 12:25:20
BUGSAT 1 02 Aug 12:25:36 12:29:39 79° 76° (ENE) 12:33:41 437.445
POPSAT HIP 1 02 Aug 12:28:28 12:32:35 56° 260° (W) 12:36:45 437.405
DELFI C3 02 Aug 12:31:14 12:34:17 20° 290° (WNW) 12:37:14 145.870
UNISAT 6 02 Aug 12:33:01 12:36:17 20° 267° (W) 12:39:29 437.425
FUNcube-1 02 Aug 12:34:16 12:38:03 25° 290° (WNW) 12:41:44 145.935
QB50P2 02 Aug 12:36:38 12:40:38 43° 261° (W) 12:44:40 145.880/145.840
UWE-3 02 Aug 12:40:36 12:43:42 17° 292° (WNW) 12:46:40 435.000/436.395/437.385
UKube-1 02 Aug 12:45:43 12:50:02 73° 285° (WNW) 12:54:20 .
Oscar 11 02 Aug 12:46:51 12:48:22 11° 294° (WNW) 12:49:39 145.826/435.025
HUMSAT D 02 Aug 12:48:51 12:52:52 37° 287° (WNW) 12:56:51 437.325/437.525
YUBILEINY 02 Aug 12:50:20 12:59:13 89° 261° (W) 13:08:04 435.215
O/OREOS (USA 219) 02 Aug 12:52:12 12:56:39 49° 253° (WSW) 13:01:04 437.305
AISAT 02 Aug 12:56:43 13:01:09 84° 284° (WNW) 13:05:34 437.250
DUCHIFAT 1 02 Aug 13:00:19 13:03:47 25° 265° (W) 13:07:13 145.980
QB50P1 02 Aug 13:04:54 13:08:10 21° 266° (W) 13:11:22 145.935-145.965
NANOSAT C BR1 02 Aug 13:05:34 13:08:50 21° 266° (W) 13:12:01 145.865
CUBEBUG 1 02 Aug 13:06:42 13:11:01 70° 101° (E) 13:15:20 437.445
DX 1 02 Aug 13:16:22 13:20:10 30° 289° (WNW) 13:23:54 434.975-435.025
Oscar 19 02 Aug 13:17:08 13:20:32 19° 66° (ENE) 13:24:07 437.125/150
Cosmos 2491 02 Aug 13:21:27 13:30:12 81° 96° (E) 13:38:59 435.465 / 435.565
Cosmos 2504 02 Aug 13:32:08 13:38:13 22° 67° (ENE) 13:44:45 435.465 / 435.565
VELOX 1 02 Aug 13:35:45 13:39:41 32° 289° (WNW) 13:43:34 145.980
SPROUT 02 Aug 13:37:32 13:41:38 43° 98° (E) 13:45:45 437.525
TISAT 1 02 Aug 13:44:09 13:47:50 30° 96° (E) 13:51:35 437.305
50 SAT 02 Aug 13:51:06 13:53:29 15° 292° (WNW) 13:55:41 437.505
ESTCUBE 1 02 Aug 13:52:54 13:56:51 30° 289° (WNW) 14:00:43 437.505/2401.250
AIST 1 02 Aug 13:55:49 13:59:21 23° 285° (WNW) 14:02:47
Gurwin Techsat 1B 02 Aug 14:26:26 14:30:43 26° 68° (ENE) 14:35:08 435.225
ITAMSAT 1 02 Aug 14:40:01 14:44:31 31° 69° (ENE) 14:49:06 435.822/435.867
YUBILEINY 02 Aug 14:49:57 14:54:59 16° 280° (W) 14:59:23 435.215
Oscar 19 02 Aug 14:54:36 14:59:33 49° 261° (W) 15:04:31 437.125/150
BEESAT 02 Aug 14:59:26 15:03:43 33° 97° (E) 15:08:00 436.000
SPROUT 02 Aug 15:14:50 15:17:24 15° 292° (WNW) 15:19:48 437.525
JAS-2 02 Aug 15:16:32 15:21:48 31° 65° (ENE) 15:27:46 435.910
SWISSCUBE 02 Aug 15:19:55 15:24:38 60° 100° (E) 15:29:20 437.505
TISAT 1 02 Aug 15:20:16 15:23:27 20° 291° (WNW) 15:26:31 437.305
Cosmos 2491 02 Aug 15:22:03 15:28:16 20° 296° (WNW) 15:34:02 435.465 / 435.565
Cosmos 2504 02 Aug 15:22:51 15:31:19 75° 266° (W) 15:39:54 435.465 / 435.565
DANDE 02 Aug 15:23:26 15:25:41 14° 76° (ENE) 15:28:30 436.750
CUSAT 1 02 Aug 15:31:44 15:35:44 32° 79° (ENE) 15:40:55 437.405
HORYU 2 02 Aug 15:33:33 15:34:56 12° 65° (ENE) 15:36:35 437.375
ITUPSAT 1 02 Aug 15:41:35 15:46:24 89° 264° (W) 15:51:10 437.325
AO-7 02 Aug 16:02:13 16:10:00 47° 65° (ENE) 16:17:55 29.400- 29.500
Gurwin Techsat 1B 02 Aug 16:05:40 16:10:34 36° 263° (W) 16:15:25 435.225
ITAMSAT 1 02 Aug 16:19:28 16:24:00 29° 264° (W) 16:28:29 435.822/435.867
STARS 02 Aug 16:33:47 16:37:43 31° 97° (E) 16:41:41 437.465
BEESAT 02 Aug 16:37:34 16:41:24 24° 292° (WNW) 16:45:07 436.000
SWISSCUBE 02 Aug 16:59:33 17:02:02 14° 295° (WNW) 17:04:17 437.505
JAS-2 02 Aug 17:01:01 17:06:42 41° 265° (W) 17:13:02 435.910
KKS-1 02 Aug 17:04:07 17:08:34 67° 285° (WNW) 17:13:00 437.445
DANDE 02 Aug 17:04:49 17:08:43 42° 262° (W) 17:13:48 436.750
HORYU 2 02 Aug 17:06:41 17:11:05 64° 259° (W) 17:15:32 437.375
CUSAT 1 02 Aug 17:14:26 17:18:14 24° 264° (W) 17:22:46 437.405
Cosmos 2504 02 Aug 17:18:54 17:22:24 12° 281° (W) 17:25:13 435.465 / 435.565
GONETS M04 02 Aug 17:32:10 17:40:11 41° 73° (ENE) 17:48:21
VERMONT LUNAR 02 Aug 17:46:31 17:49:01 22° 149° (SSE) 17:51:34 437.305
AO-7 02 Aug 17:55:18 18:02:57 37° 263° (W) 18:10:29 29.400- 29.500
SO-50 02 Aug 17:58:31 18:02:13 21° 45° (NE) 18:05:58 436.795
CUTE-I 02 Aug 17:59:27 18:02:38 17° 64° (ENE) 18:06:02 437.470
MOZHAYETS 4 02 Aug 18:05:51 18:10:28 67° 101° (E) 18:15:01
Cosmos 2499 02 Aug 18:10:15 18:15:19 17° 62° (ENE) 18:20:57 435.465 / 435.565
STARS 02 Aug 18:10:35 18:13:59 21° 291° (WNW) 18:17:17 437.465
Cubesat XI-IV 02 Aug 18:41:53 18:46:52 41° 71° (ENE) 18:51:55 437.490
PCSat 02 Aug 18:53:37 18:58:53 50° 58° (ENE) 19:04:09 145.827
VERMONT LUNAR 02 Aug 19:22:20 19:25:30 82° 341° (NNW) 19:28:42 437.305
GONETS M04 02 Aug 19:29:04 19:37:03 41° 272° (W) 19:44:55
STRAND 1 02 Aug 19:37:25 19:39:59 14° 90° (E) 19:42:49 437.568
